Weather History for Ramona, CA

Change the Weather History Date:

Monday, November 14, 2011

  Actual Average Record
Temperature  
Mean Temperature 53 °F 56 °F  
Max Temperature 68 °F 72 °F 90 °F (2007)
Min Temperature 37 °F 40 °F 27 °F (2000)
Degree Days  
Heating Degree Days 12 9  
Month to date heating degree days 158 104  
Since 1 July heating degree days 257 223  
Cooling Degree Days 0 0  
Month to date cooling degree days 0 4  
Year to date cooling degree days 726 848  
Growing Degree Days 2 (Base 50)    
Moisture  
Dew Point 44 °F    
Average Humidity 74    
Maximum Humidity 100    
Minimum Humidity 48    
Precipitation  
Precipitation 0.00 in 0.04 in 0.29 in (1993)
Month to date precipitation 2.36 0.58  
Year to date precipitation 12.48 13.20  
Since 1 July precipitation 3.10 1.87  
Snow  
Snow 0.00 in - - ()
Month to date snowfall 0.0  
Year to date snowfall 0.0  
Since 1 July snowfall 0.0  
Snow Depth 0.00 in    
Sea Level Pressure  
Sea Level Pressure 29.97 in    
Wind  
Wind Speed 3 mph (West)    
Max Wind Speed 15 mph    
Max Gust Speed 20 mph    
Visibility 5 miles    
Events Fog    
T = Trace of Precipitation, MM = Missing Value Source: NWS Daily Summary

Daily Weather History Graph

Daily Weather History Graph

Search for Another Location

Airport:

Trip Planner

Search our weather history database for the weather conditions in past years. The results will help you decide how hot, cold, wet, or windy it might be!

Date:

Astronomy

Nov. 14, 2011 Rise Set
Actual Time 6:17 AM PST 4:46 PM PST
Civil Twilight 5:51 AM PST 5:12 PM PST
Nautical Twilight 5:21 AM PST 5:42 PM PST
Astronomical Twilight 4:51 AM PST 6:11 PM PST
Moon 8:01 PM PST (11/14) 9:35 AM PST (11/14)
Length of Visible Light 11h 21m
Length of Day
10h 29m
Waning Gibbous, 86% of the Moon is Illuminated
Nov 14
Waning Gibbous
Nov 18
Last Quarter
Nov 24
New
Dec 2
First Quarter
Dec 10
Full

Hourly Weather History & Observations

Time (PST) Temp. Windchill Dew Point Humidity Pressure Visibility Wind Dir Wind Speed Gust Speed Precip Events Conditions
12:17 AM 42.8 °F - 42.8 °F 100% 29.98 in 0.8 mi Calm Calm - N/A   Mist
12:34 AM 44.6 °F 43.1 °F 44.6 °F 100% 29.98 in 0.2 mi East 3.5 mph - N/A Fog Fog
12:41 AM 44.6 °F - 44.6 °F 100% 29.98 in 1.2 mi Calm Calm - N/A   Scattered Clouds
12:44 AM 44.6 °F - 44.6 °F 100% 29.98 in 4.0 mi Calm Calm - N/A   Partly Cloudy
12:53 AM 45.0 °F - 44.1 °F 97% 29.96 in 10.0 mi Calm Calm - N/A   Partly Cloudy
1:15 AM 42.8 °F - 42.8 °F 100% 29.98 in 1.8 mi Calm Calm - N/A   Clear
1:24 AM 44.6 °F - 44.6 °F 100% 29.98 in 4.0 mi Calm Calm - N/A   Clear
1:38 AM 39.2 °F - 39.2 °F 100% 29.98 in 1.8 mi Calm Calm - N/A   Clear
1:44 AM 41.0 °F - 41.0 °F 100% 29.98 in 0.8 mi Calm Calm - N/A   Clear
1:53 AM 41.0 °F - 41.0 °F 100% 29.96 in 0.5 mi Calm Calm - N/A Fog Fog
2:06 AM 41.0 °F - 41.0 °F 100% 29.98 in 1.2 mi Calm Calm - N/A   Scattered Clouds
2:14 AM 42.8 °F - 42.8 °F 100% 29.97 in 7.0 mi Calm Calm - N/A   Scattered Clouds
2:53 AM 41.0 °F - 41.0 °F 100% 29.95 in 4.0 mi Calm Calm - N/A   Clear
2:56 AM 42.8 °F - 41.0 °F 93% 29.97 in 1.8 mi Calm Calm - N/A   Clear
2:59 AM 42.8 °F - 42.8 °F 100% 29.96 in 0.8 mi Calm Calm - N/A   Clear
3:09 AM 41.0 °F - 41.0 °F 100% 29.97 in 0.2 mi Calm Calm - N/A Fog Fog
3:16 AM 39.2 °F - 39.2 °F 100% 29.97 in 1.0 mi Calm Calm - N/A   Mist
3:28 AM 39.2 °F - 39.2 °F 100% 29.96 in 1.5 mi Calm Calm - N/A   Partly Cloudy
3:37 AM 39.2 °F - 37.4 °F 93% 29.97 in 3.0 mi Calm Calm - N/A   Scattered Clouds
3:46 AM 39.2 °F - 39.2 °F 100% 29.97 in 1.5 mi Calm Calm - N/A   Partly Cloudy
3:50 AM 37.4 °F - 37.4 °F 100% 29.97 in 0.8 mi Calm Calm - N/A   Mist
3:53 AM 39.0 °F - 37.9 °F 96% 29.96 in 0.5 mi Calm Calm - N/A Fog Fog
4:37 AM 39.2 °F - 39.2 °F 100% 29.96 in 1.2 mi Calm Calm - N/A   Mostly Cloudy
4:39 AM 39.2 °F - 39.2 °F 100% 29.96 in 3.0 mi Calm Calm - N/A   Mostly Cloudy
4:50 AM 39.2 °F - 39.2 °F 100% 29.96 in 10.0 mi Calm Calm - N/A   Partly Cloudy
4:53 AM 39.0 °F - 39.0 °F 100% 29.96 in 9.0 mi Calm Calm - N/A   Partly Cloudy
5:10 AM 37.4 °F - 37.4 °F 100% 29.97 in 2.5 mi Calm Calm - N/A   Clear
5:25 AM 37.4 °F - 37.4 °F 100% 29.97 in 1.2 mi Calm Calm - N/A   Clear
5:28 AM 37.4 °F - 37.4 °F 100% 29.97 in 0.8 mi Calm Calm - N/A   Mist
5:53 AM 39.0 °F - 37.9 °F 96% 29.98 in 0.5 mi Calm Calm - N/A Fog Fog
5:59 AM 39.2 °F - 37.4 °F 93% 29.98 in 4.0 mi Calm Calm - N/A   Mostly Cloudy
6:19 AM 37.4 °F - 37.4 °F 100% 29.99 in 1.0 mi Calm Calm - N/A   Mist
6:26 AM 39.2 °F - 37.4 °F 93% 29.99 in 0.2 mi Calm Calm - N/A Fog Fog
6:29 AM - - - N/A% - - North - - N/A   Unknown
6:39 AM 39.2 °F - 39.2 °F 100% 30.00 in 1.0 mi Calm Calm - N/A   Mist
6:42 AM 39.2 °F - 39.2 °F 100% 30.00 in 2.0 mi Calm Calm - N/A   Scattered Clouds
6:49 AM 39.2 °F - 39.2 °F 100% 30.00 in 5.0 mi Calm Calm - N/A   Partly Cloudy
6:53 AM 42.1 °F 40.2 °F 41.0 °F 96% 30.00 in 5.0 mi Variable 3.5 mph - N/A   Partly Cloudy
7:53 AM 48.9 °F - 48.0 °F 97% 30.00 in 10.0 mi Calm Calm - N/A   Clear
8:53 AM 57.9 °F - 51.1 °F 78% 30.00 in 10.0 mi Calm Calm - N/A   Clear
9:53 AM 63.0 °F - 48.0 °F 58% 29.99 in 10.0 mi Variable 3.5 mph - N/A   Clear
10:53 AM 66.0 °F - 48.0 °F 52% 29.98 in 10.0 mi West 5.8 mph - N/A   Clear
11:53 AM 66.0 °F - 46.9 °F 50% 29.95 in 10.0 mi West 6.9 mph - N/A   Clear
12:53 PM 66.0 °F - 48.9 °F 54% 29.92 in 10.0 mi West 8.1 mph - N/A   Scattered Clouds
1:53 PM 64.0 °F - 54.0 °F 70% 29.91 in 10.0 mi West 12.7 mph - N/A   Partly Cloudy
2:53 PM 60.1 °F - 53.1 °F 78% 29.93 in 10.0 mi West 11.5 mph - N/A   Scattered Clouds
3:53 PM 57.0 °F - 52.0 °F 83% 29.94 in 10.0 mi West 8.1 mph - N/A   Mostly Cloudy
4:18 PM 57.2 °F - 51.8 °F 82% 29.95 in 10.0 mi WNW 6.9 mph - N/A   Mostly Cloudy
4:53 PM 55.0 °F - 52.0 °F 89% 29.95 in 8.0 mi NW 4.6 mph - N/A   Overcast
5:53 PM 55.0 °F - 52.0 °F 89% 29.96 in 9.0 mi West 3.5 mph - N/A   Overcast
6:53 PM 53.1 °F - 51.1 °F 93% 29.98 in 10.0 mi Calm Calm - N/A   Mostly Cloudy
7:53 PM 55.0 °F - 52.0 °F 89% 29.98 in 10.0 mi SW 3.5 mph - N/A   Overcast
8:53 PM 52.0 °F - 50.0 °F 93% 29.98 in 8.0 mi SSE 3.5 mph - N/A   Overcast
9:53 PM 52.0 °F - 50.0 °F 93% 29.99 in 7.0 mi Calm Calm - N/A   Overcast
10:07 PM 51.8 °F - 51.8 °F 100% 30.01 in 8.0 mi Calm Calm - N/A   Overcast
10:53 PM 53.1 °F - 51.1 °F 93% 29.99 in 10.0 mi Calm Calm - N/A   Overcast
11:27 PM 51.8 °F - 50.0 °F 94% 30.02 in 4.0 mi Calm Calm - N/A   Overcast
11:53 PM 52.0 °F - 51.1 °F 97% 29.99 in 6.0 mi Calm Calm - N/A   Overcast